When you browse on this site, cookies collect data to enhance your experience and personalize the content and advertising you see.
Visit our Privacy Policy to learn more. By continuing to use the site, you agree to this use of cookies and data.
  • In Hungary
  • List of Countries
  • For 7 days
  • Water Temperature
  • Weather Map
  • News
  • Weather Widgets
  • user-avatar
    Login

    Hourly Weather Grudki

    Today, 7 December, Saturday

    Time Temperature Precipitation Wind Pressure Humidity
    00:00 -4°C° 0 mm 5 mps 742 mmHg 65%
    01:00 -4°C° 0 mm 5 mps 742 mmHg 64%
    02:00 -3°C° 0 mm 4 mps 741 mmHg 65%
    03:00 -4°C° 0 mm 5 mps 741 mmHg 65%
    04:00 -4°C° 0 mm 5 mps 740 mmHg 64%
    05:00 -4°C° 0 mm 5 mps 740 mmHg 64%
    06:00 -4°C° 0 mm 5 mps 740 mmHg 64%
    07:00 -2°C° 0 mm 5 mps 739 mmHg 63%
    08:00 -2°C° 0 mm 5 mps 739 mmHg 63%
    09:00 -2°C° 0 mm 5 mps 739 mmHg 60%
    10:00 -2°C° 0 mm 6 mps 739 mmHg 58%
    11:00 -1°C° 0 mm 6 mps 738 mmHg 56%
    12:00 -1°C° 0 mm 6 mps 738 mmHg 63%
    13:00 -1°C° 0 mm 6 mps 738 mmHg 70%
    14:00 -1°C° 0 mm 6 mps 738 mmHg 78%
    15:00 +1°C° 0 mm 6 mps 737 mmHg 81%
    16:00 0°C° 0 mm 7 mps 737 mmHg 84%
    17:00 +2°C° 0 mm 7 mps 737 mmHg 87%
    18:00 +2°C° 0.1 mm 7 mps 737 mmHg 88%
    19:00 +2°C° 0.1 mm 7 mps 737 mmHg 90%
    20:00 +3°C° 0.1 mm 7 mps 737 mmHg 91%
    21:00 +3°C° 0.1 mm 7 mps 737 mmHg 90%
    22:00 +2°C° 0.1 mm 6 mps 737 mmHg 88%
    23:00 +2°C° 0.1 mm 6 mps 737 mmHg 87%

    Tomorrow, 8 December, Sunday

    Time Temperature Precipitation Wind Pressure Humidity
    00:00 +2°C° 0 mm 6 mps 738 mmHg 88%
    01:00 +2°C° 0 mm 6 mps 738 mmHg 89%
    02:00 +3°C° 0 mm 6 mps 739 mmHg 90%
    03:00 +2°C° 0.1 mm 6 mps 739 mmHg 89%
    04:00 +2°C° 0.1 mm 5 mps 739 mmHg 89%
    05:00 +2°C° 0.1 mm 5 mps 739 mmHg 88%
    06:00 +1°C° 0 mm 5 mps 739 mmHg 89%
    07:00 +1°C° 0 mm 4 mps 740 mmHg 90%
    08:00 0°C° 0 mm 4 mps 740 mmHg 91%
    09:00 +1°C° 0 mm 4 mps 740 mmHg 91%
    10:00 +1°C° 0 mm 4 mps 740 mmHg 90%
    11:00 +3°C° 0 mm 4 mps 740 mmHg 89%
    12:00 +3°C° 0.1 mm 4 mps 740 mmHg 88%
    13:00 +3°C° 0.1 mm 5 mps 740 mmHg 87%
    14:00 +3°C° 0.1 mm 5 mps 740 mmHg 86%
    15:00 +3°C° 0 mm 5 mps 739 mmHg 84%
    16:00 +3°C° 0 mm 5 mps 739 mmHg 82%
    17:00 +3°C° 0 mm 5 mps 738 mmHg 80%
    18:00 +3°C° 0 mm 6 mps 738 mmHg 79%
    19:00 +3°C° 0 mm 6 mps 738 mmHg 79%
    20:00 +3°C° 0 mm 6 mps 738 mmHg 78%
    21:00 +3°C° 0 mm 6 mps 737 mmHg 79%
    22:00 +3°C° 0 mm 6 mps 737 mmHg 79%
    23:00 +3°C° 0 mm 7 mps 736 mmHg 80%

    Day after tomorrow, 9 December, Monday

    Time Temperature Precipitation Wind Pressure Humidity
    00:00 +3°C° 0.2 mm 7 mps 736 mmHg 81%
    01:00 +3°C° 0.2 mm 7 mps 736 mmHg 82%
    02:00 +3°C° 0.2 mm 7 mps 735 mmHg 84%
    03:00 +4°C° 0 mm 6 mps 735 mmHg 85%
    04:00 +4°C° 0 mm 6 mps 735 mmHg 86%
    05:00 +4°C° 0 mm 6 mps 734 mmHg 87%
    06:00 +3°C° 0.4 mm 6 mps 734 mmHg 88%
    07:00 +3°C° 0.4 mm 6 mps 734 mmHg 89%
    08:00 +3°C° 0.4 mm 6 mps 734 mmHg 91%
    09:00 +4°C° 0.2 mm 6 mps 734 mmHg 89%
    10:00 +4°C° 0.2 mm 6 mps 734 mmHg 88%
    11:00 +5°C° 0.2 mm 6 mps 734 mmHg 87%
    12:00 +5°C° 0 mm 6 mps 734 mmHg 83%
    13:00 +5°C° 0 mm 6 mps 734 mmHg 79%
    14:00 +7°C° 0 mm 6 mps 735 mmHg 75%
    15:00 +6°C° 0 mm 5 mps 735 mmHg 77%
    16:00 +5°C° 0 mm 4 mps 735 mmHg 78%
    17:00 +5°C° 0 mm 4 mps 735 mmHg 80%
    18:00 +5°C° 0 mm 4 mps 735 mmHg 81%
    19:00 +4°C° 0 mm 4 mps 735 mmHg 81%
    20:00 +4°C° 0 mm 4 mps 735 mmHg 82%
    21:00 +4°C° 0 mm 4 mps 735 mmHg 81%
    22:00 +4°C° 0 mm 4 mps 735 mmHg 80%
    23:00 +3°C° 0 mm 5 mps 735 mmHg 79%

    10 December, Tuesday

    Time Temperature Precipitation Wind Pressure Humidity
    00:00 +3°C° 0 mm 5 mps 736 mmHg 81%
    01:00 +3°C° 0 mm 5 mps 736 mmHg 83%
    02:00 +2°C° 0 mm 5 mps 736 mmHg 85%
    03:00 +2°C° 0 mm 5 mps 736 mmHg 85%
    04:00 +2°C° 0 mm 5 mps 736 mmHg 84%
    05:00 +2°C° 0 mm 5 mps 736 mmHg 83%
    06:00 +2°C° 0 mm 5 mps 737 mmHg 84%
    07:00 +2°C° 0 mm 5 mps 737 mmHg 84%
    08:00 +2°C° 0 mm 5 mps 737 mmHg 85%
    09:00 +2°C° 0 mm 5 mps 738 mmHg 83%
    10:00 +2°C° 0 mm 5 mps 738 mmHg 82%
    11:00 +2°C° 0 mm 5 mps 739 mmHg 81%
    12:00 +3°C° 0 mm 5 mps 739 mmHg 81%
    13:00 +3°C° 0 mm 5 mps 739 mmHg 81%
    14:00 +3°C° 0 mm 5 mps 740 mmHg 82%
    15:00 +3°C° 0.1 mm 5 mps 741 mmHg 82%
    16:00 +3°C° 0.1 mm 5 mps 741 mmHg 83%
    17:00 +3°C° 0.1 mm 5 mps 742 mmHg 84%
    18:00 +2°C° 0.2 mm 5 mps 743 mmHg 83%
    19:00 +2°C° 0.2 mm 6 mps 744 mmHg 83%
    20:00 +1°C° 0.2 mm 6 mps 745 mmHg 82%
    21:00 -1°C° 0 mm 6 mps 746 mmHg 78%
    22:00 0°C° 0 mm 5 mps 747 mmHg 75%
    23:00 -1°C° 0 mm 4 mps 748 mmHg 71%

    11 December, Wednesday

    Time Temperature Precipitation Wind Pressure Humidity
    00:00 -1°C° 0 mm 3 mps 748 mmHg 72%
    01:00 -1°C° 0 mm 3 mps 749 mmHg 72%
    02:00 -2°C° 0 mm 2 mps 750 mmHg 73%
    03:00 -2°C° 0 mm 2 mps 750 mmHg 72%
    04:00 -2°C° 0 mm 2 mps 750 mmHg 71%
    05:00 0°C° 0 mm 1 mps 751 mmHg 70%
    06:00 0°C° 0 mm 1 mps 751 mmHg 69%
    07:00 0°C° 0 mm 1 mps 751 mmHg 67%
    08:00 -1°C° 0 mm 0 mps 751 mmHg 66%
    09:00 +1°C° 0 mm 1 mps 751 mmHg 62%
    10:00 -1°C° 0 mm 2 mps 752 mmHg 59%
    11:00 +1°C° 0 mm 2 mps 752 mmHg 55%
    12:00 0°C° 0 mm 3 mps 751 mmHg 52%
    13:00 0°C° 0 mm 3 mps 751 mmHg 48%
    14:00 0°C° 0 mm 4 mps 751 mmHg 45%
    15:00 -1°C° 0 mm 4 mps 750 mmHg 49%
    16:00 -2°C° 0 mm 4 mps 750 mmHg 52%
    17:00 -2°C° 0 mm 4 mps 750 mmHg 55%
    18:00 -2°C° 0 mm 4 mps 750 mmHg 56%
    19:00 -2°C° 0 mm 4 mps 750 mmHg 57%
    20:00 -2°C° 0 mm 4 mps 750 mmHg 58%
    21:00 -2°C° 0 mm 4 mps 749 mmHg 62%
    22:00 -2°C° 0 mm 4 mps 749 mmHg 66%
    23:00 -3°C° 0 mm 4 mps 749 mmHg 69%

    12 December, Thursday

    Time Temperature Precipitation Wind Pressure Humidity
    00:00 -4°C° 0 mm 5 mps 748 mmHg 74%
    01:00 -4°C° 0 mm 5 mps 748 mmHg 79%
    02:00 -4°C° 0 mm 5 mps 748 mmHg 84%
    03:00 -4°C° 0 mm 5 mps 747 mmHg 86%
    04:00 -3°C° 0 mm 4 mps 747 mmHg 88%
    05:00 -3°C° 0 mm 4 mps 746 mmHg 90%
    06:00 -3°C° 0 mm 4 mps 746 mmHg 90%
    07:00 -3°C° 0 mm 4 mps 746 mmHg 90%
    08:00 -3°C° 0 mm 4 mps 746 mmHg 90%
    09:00 -2°C° 0 mm 5 mps 746 mmHg 88%
    10:00 -2°C° 0 mm 5 mps 746 mmHg 86%
    11:00 -1°C° 0 mm 5 mps 746 mmHg 84%
    12:00 -1°C° 0 mm 5 mps 745 mmHg 83%
    13:00 -1°C° 0 mm 5 mps 745 mmHg 82%
    14:00 0°C° 0 mm 5 mps 744 mmHg 81%
    15:00 -1°C° 0 mm 4 mps 744 mmHg 84%
    16:00 -1°C° 0 mm 4 mps 744 mmHg 87%
    17:00 -2°C° 0 mm 4 mps 744 mmHg 90%
    18:00 -2°C° 0 mm 4 mps 744 mmHg 91%
    19:00 -2°C° 0 mm 4 mps 744 mmHg 91%
    20:00 -2°C° 0 mm 4 mps 743 mmHg 91%
    21:00 -2°C° 0 mm 4 mps 743 mmHg 92%
    22:00 -2°C° 0 mm 4 mps 743 mmHg 92%
    23:00 -2°C° 0 mm 4 mps 742 mmHg 93%
    Show more